• In Uzbekistan
  • List of Countries
  • For 7 days
  • Water Temperature
  • Satellite Maps
  • Weather Map
  • Weather Widgets
  • user-avatar
    Login

    Hourly Weather Usug

    Today, 19 June, Tuesday

    Time Temperature Precipitation Wind Pressure Humidity
    00:00 +9°C° 0 mm 1 mps 605 mmHg 74%
    01:00 +9°C° 0 mm 1 mps 604 mmHg 74%
    02:00 +9°C° 0 mm 1 mps 604 mmHg 73%
    03:00 +9°C° 0 mm 1 mps 604 mmHg 72%
    04:00 +10°C° 0 mm 1 mps 605 mmHg 69%
    05:00 +11°C° 0 mm 1 mps 606 mmHg 67%
    06:00 +11°C° 0 mm 0 mps 606 mmHg 65%
    07:00 +13°C° 0 mm 1 mps 607 mmHg 62%
    08:00 +14°C° 0 mm 1 mps 608 mmHg 60%
    09:00 +15°C° 0 mm 2 mps 608 mmHg 57%
    10:00 +16°C° 0.1 mm 2 mps 608 mmHg 58%
    11:00 +16°C° 0.1 mm 2 mps 609 mmHg 59%
    12:00 +16°C° 0.1 mm 2 mps 609 mmHg 59%
    13:00 +16°C° 0.2 mm 2 mps 609 mmHg 60%
    14:00 +16°C° 0.2 mm 2 mps 609 mmHg 60%
    15:00 +16°C° 0.2 mm 2 mps 609 mmHg 60%
    16:00 +16°C° 0 mm 2 mps 609 mmHg 62%
    17:00 +15°C° 0 mm 2 mps 609 mmHg 63%
    18:00 +15°C° 0 mm 1 mps 608 mmHg 65%
    19:00 +13°C° 0 mm 1 mps 608 mmHg 67%
    20:00 +12°C° 0 mm 1 mps 607 mmHg 69%
    21:00 +9°C° 0 mm 2 mps 607 mmHg 72%
    22:00 +9°C° 0 mm 2 mps 607 mmHg 70%
    23:00 +9°C° 0 mm 2 mps 607 mmHg 67%

    Tomorrow, 20 June, Wednesday

    Time Temperature Precipitation Wind Pressure Humidity
    00:00 +9°C° 0 mm 2 mps 607 mmHg 65%
    01:00 +9°C° 0 mm 2 mps 607 mmHg 65%
    02:00 +9°C° 0 mm 2 mps 607 mmHg 65%
    03:00 +9°C° 0 mm 2 mps 607 mmHg 65%
    04:00 +11°C° 0 mm 1 mps 608 mmHg 65%
    05:00 +12°C° 0 mm 1 mps 609 mmHg 65%
    06:00 +13°C° 0 mm 1 mps 609 mmHg 64%
    07:00 +14°C° 0.1 mm 1 mps 610 mmHg 62%
    08:00 +15°C° 0.1 mm 1 mps 610 mmHg 61%
    09:00 +16°C° 0.1 mm 2 mps 611 mmHg 59%
    10:00 +16°C° 0.4 mm 2 mps 610 mmHg 61%
    11:00 +16°C° 0.4 mm 2 mps 610 mmHg 63%
    12:00 +16°C° 0.4 mm 2 mps 610 mmHg 65%
    13:00 +17°C° 0.7 mm 2 mps 610 mmHg 64%
    14:00 +17°C° 0.7 mm 2 mps 610 mmHg 62%
    15:00 +17°C° 0.7 mm 2 mps 610 mmHg 61%
    16:00 +17°C° 0.8 mm 2 mps 610 mmHg 64%
    17:00 +16°C° 0.8 mm 1 mps 610 mmHg 66%
    18:00 +15°C° 0.8 mm 1 mps 610 mmHg 69%
    19:00 +14°C° 0.2 mm 1 mps 609 mmHg 71%
    20:00 +13°C° 0.2 mm 1 mps 609 mmHg 74%
    21:00 +11°C° 0.2 mm 1 mps 609 mmHg 77%
    22:00 +11°C° 0 mm 1 mps 609 mmHg 76%
    23:00 +11°C° 0 mm 1 mps 609 mmHg 76%

    Day after tomorrow, 21 June, Thursday

    Time Temperature Precipitation Wind Pressure Humidity
    00:00 +11°C° 0 mm 1 mps 609 mmHg 75%
    01:00 +11°C° 0.1 mm 1 mps 609 mmHg 74%
    02:00 +11°C° 0.1 mm 1 mps 609 mmHg 74%
    03:00 +11°C° 0.1 mm 1 mps 609 mmHg 73%
    04:00 +12°C° 0.2 mm 1 mps 609 mmHg 72%
    05:00 +12°C° 0.2 mm 1 mps 609 mmHg 72%
    06:00 +13°C° 0.2 mm 1 mps 610 mmHg 71%
    07:00 +14°C° 0.2 mm 1 mps 610 mmHg 67%
    08:00 +15°C° 0.2 mm 1 mps 611 mmHg 63%
    09:00 +18°C° 0.2 mm 1 mps 611 mmHg 59%
    10:00 +18°C° 0.3 mm 1 mps 611 mmHg 58%
    11:00 +18°C° 0.3 mm 2 mps 611 mmHg 56%
    12:00 +18°C° 0.3 mm 2 mps 611 mmHg 55%
    13:00 +18°C° 0.6 mm 2 mps 611 mmHg 55%
    14:00 +19°C° 0.6 mm 2 mps 611 mmHg 55%
    15:00 +19°C° 0.6 mm 2 mps 611 mmHg 55%
    16:00 +18°C° 0.4 mm 2 mps 610 mmHg 57%
    17:00 +19°C° 0.4 mm 1 mps 610 mmHg 60%
    18:00 +18°C° 0.4 mm 1 mps 610 mmHg 62%
    19:00 +15°C° 0 mm 1 mps 609 mmHg 65%
    20:00 +14°C° 0 mm 1 mps 609 mmHg 68%
    21:00 +12°C° 0 mm 1 mps 609 mmHg 70%
    22:00 +12°C° 0 mm 2 mps 608 mmHg 70%
    23:00 +12°C° 0 mm 2 mps 608 mmHg 69%

    22 June, Friday

    Time Temperature Precipitation Wind Pressure Humidity
    00:00 +12°C° 0 mm 2 mps 608 mmHg 68%
    01:00 +12°C° 0 mm 2 mps 608 mmHg 67%
    02:00 +12°C° 0 mm 2 mps 608 mmHg 66%
    03:00 +10°C° 0 mm 2 mps 607 mmHg 65%
    04:00 +12°C° 0 mm 2 mps 608 mmHg 64%
    05:00 +14°C° 0 mm 1 mps 608 mmHg 63%
    06:00 +15°C° 0 mm 1 mps 609 mmHg 62%
    07:00 +16°C° 0 mm 1 mps 609 mmHg 57%
    08:00 +18°C° 0 mm 2 mps 610 mmHg 52%
    09:00 +19°C° 0 mm 2 mps 610 mmHg 47%
    10:00 +20°C° 0.1 mm 3 mps 610 mmHg 47%
    11:00 +21°C° 0.1 mm 3 mps 610 mmHg 46%
    12:00 +21°C° 0.1 mm 3 mps 610 mmHg 45%
    13:00 +21°C° 0.3 mm 3 mps 610 mmHg 45%
    14:00 +21°C° 0.3 mm 3 mps 609 mmHg 45%
    15:00 +21°C° 0.3 mm 3 mps 609 mmHg 46%
    16:00 +20°C° 0.1 mm 3 mps 609 mmHg 48%
    17:00 +20°C° 0.1 mm 2 mps 608 mmHg 51%
    18:00 +19°C° 0.1 mm 2 mps 608 mmHg 54%
    19:00 +17°C° 0 mm 2 mps 607 mmHg 56%
    20:00 +15°C° 0 mm 2 mps 606 mmHg 59%
    21:00 +13°C° 0 mm 2 mps 606 mmHg 61%
    22:00 +13°C° 0 mm 2 mps 606 mmHg 60%
    23:00 +13°C° 0 mm 2 mps 606 mmHg 58%

    23 June, Saturday

    Time Temperature Precipitation Wind Pressure Humidity
    00:00 +13°C° 0 mm 2 mps 605 mmHg 57%
    01:00 +13°C° 0 mm 2 mps 605 mmHg 55%
    02:00 +13°C° 0 mm 2 mps 605 mmHg 54%
    03:00 +13°C° 0 mm 2 mps 605 mmHg 52%
    04:00 +14°C° 0 mm 2 mps 605 mmHg 53%
    05:00 +15°C° 0 mm 2 mps 606 mmHg 54%
    06:00 +16°C° 0 mm 2 mps 606 mmHg 55%
    07:00 +18°C° 0 mm 2 mps 607 mmHg 50%
    08:00 +20°C° 0 mm 2 mps 608 mmHg 45%
    09:00 +22°C° 0 mm 1 mps 608 mmHg 39%
    10:00 +23°C° 0.2 mm 2 mps 608 mmHg 39%
    11:00 +24°C° 0.2 mm 2 mps 608 mmHg 39%
    12:00 +24°C° 0.2 mm 3 mps 608 mmHg 39%
    13:00 +24°C° 0.3 mm 2 mps 608 mmHg 40%
    14:00 +24°C° 0.3 mm 2 mps 608 mmHg 41%
    15:00 +24°C° 0.3 mm 2 mps 608 mmHg 41%
    16:00 +23°C° 0.2 mm 2 mps 608 mmHg 45%
    17:00 +22°C° 0.2 mm 1 mps 607 mmHg 49%
    18:00 +21°C° 0.2 mm 1 mps 607 mmHg 53%
    19:00 +20°C° 0 mm 1 mps 607 mmHg 56%
    20:00 +17°C° 0 mm 2 mps 606 mmHg 58%
    21:00 +15°C° 0 mm 2 mps 606 mmHg 61%
    22:00 +15°C° 0 mm 2 mps 606 mmHg 59%
    23:00 +14°C° 0 mm 2 mps 606 mmHg 58%

    24 June, Sunday

    Time Temperature Precipitation Wind Pressure Humidity
    00:00 +14°C° 0 mm 2 mps 606 mmHg 57%
    01:00 +14°C° 0 mm 2 mps 606 mmHg 55%
    02:00 +14°C° 0 mm 2 mps 606 mmHg 53%
    03:00 +14°C° 0 mm 2 mps 606 mmHg 51%
    04:00 +15°C° 0 mm 2 mps 606 mmHg 52%
    05:00 +16°C° 0 mm 2 mps 607 mmHg 53%
    06:00 +18°C° 0 mm 1 mps 608 mmHg 54%
    07:00 +18°C° 0 mm 2 mps 609 mmHg 51%
    08:00 +20°C° 0 mm 2 mps 609 mmHg 49%
    09:00 +21°C° 0 mm 2 mps 610 mmHg 46%
    10:00 +23°C° 0.1 mm 2 mps 610 mmHg 46%
    11:00 +24°C° 0.1 mm 3 mps 610 mmHg 46%
    12:00 +24°C° 0.1 mm 3 mps 610 mmHg 46%
    13:00 +24°C° 0.2 mm 3 mps 610 mmHg 47%
    14:00 +24°C° 0.2 mm 3 mps 610 mmHg 48%
    15:00 +24°C° 0.2 mm 2 mps 610 mmHg 49%
    16:00 +23°C° 0.1 mm 2 mps 610 mmHg 53%
    17:00 +23°C° 0.1 mm 2 mps 610 mmHg 56%
    18:00 +21°C° 0.1 mm 2 mps 609 mmHg 60%
    19:00 +19°C° 0 mm 2 mps 609 mmHg 63%
    20:00 +17°C° 0 mm 2 mps 609 mmHg 66%
    21:00 +15°C° 0 mm 2 mps 608 mmHg 70%
    22:00 +15°C° 0 mm 2 mps 608 mmHg 66%
    23:00 +15°C° 0 mm 2 mps 608 mmHg 63%
    Show more